Home   Weather   Barnaul   Past weeks

Flag for Russia Past Weather in Barnaul, Russia — Yesterday and Last 2 Weeks

Now
27 °F

Passing clouds.


Feels Like: 20 °F
Forecast: 22 / 33 °F
Wind: 6 mph from South

Location: Barnaul Airport

Current Time: Feb 27, 2017 at 2:24:24 am

Latest Report: Feb 27, 2017 at 1:30 am


Visibility: N/A

Pressure: 30.39 "Hg

Humidity: 86%

Dew Point: 23 °F

Location of BarnaulLocation

Past Weather in Barnaul — Graph

°F

Barnaul Temperature Yesterday

Maximum temperature yesterday: 27 °F (at 10:00 pm)
Minimum temperature yesterday: 19 °F (at 8:00 am)
Average temperature yesterday: 23 °F

High & Low Weather Summary for the Past Weeks

 TemperatureHumidityPressure
High34 °F (Feb 22, 3:00 pm)93% (Feb 17, 8:30 am)30.63 "Hg (Feb 17, 8:30 am)
Low-18 °F (Feb 12, 9:00 am)37% (Feb 23, 4:00 pm)29.65 "Hg (Feb 17, 3:00 pm)
Average10 °F73%30.29 "Hg
* Reported Feb 12 1:00 am — Feb 27 1:00 am, Barnaul, Weather by CustomWeather, © 2017

Note: Actual official high and low records may vary slightly from our data, if they occured in-between our weather recording intervals... More about our weather records

Advertising

Barnaul Weather History for the Previous 24 Hours

Scroll right to see more
 ConditionsComfort  
Time TempWeatherWind HumidityBarometerVisibility
1:00 am
Mon, Feb 27
27 °FPassing clouds.8 mph86%30.39 "HgN/A
12:30 am25 °FPassing clouds.8 mph93%30.39 "HgN/A
12:00 am25 °FLight snow. Passing clouds.6 mph93%30.39 "HgN/A
11:30 pm
Sun, Feb 26
25 °FLight snow. Passing clouds.6 mph93%30.39 "Hg6 mi
11:00 pm27 °FLight snow. Passing clouds.6 mph86%30.39 "HgN/A
10:30 pm25 °FPassing clouds.6 mph93%30.39 "HgN/A
10:00 pm27 °FPassing clouds.8 mph86%30.39 "HgN/A
9:30 pm25 °FPassing clouds.6 mph86%30.36 "HgN/A
9:00 pm25 °FPassing clouds.3 mph86%30.39 "HgN/A
8:30 pm25 °FPassing clouds.3 mph86%30.39 "HgN/A
8:00 pm25 °FPassing clouds.6 mph86%30.39 "HgN/A
7:30 pm25 °FLight snow. Passing clouds.6 mph86%30.39 "HgN/A
7:00 pm25 °FLight snow. Passing clouds.3 mph86%30.39 "HgN/A
6:30 pm25 °FPartly sunny.3 mph86%30.39 "HgN/A
6:00 pm25 °FPartly sunny.8 mph80%30.39 "HgN/A
5:30 pm25 °FPartly sunny.8 mph80%30.36 "HgN/A
5:00 pm25 °FLight snow. Partly sunny.8 mph80%30.36 "HgN/A
4:30 pm23 °FLight snow. Partly sunny.6 mph80%30.36 "HgN/A
4:00 pm23 °FScattered clouds.8 mph80%30.33 "HgN/A
3:30 pm23 °FScattered clouds.8 mph80%30.33 "HgN/A
3:00 pm23 °FScattered clouds.10 mph86%30.33 "HgN/A
2:30 pm23 °FScattered clouds.10 mph80%30.33 "HgN/A
2:00 pm21 °FScattered clouds.10 mph86%30.33 "HgN/A
1:30 pm21 °FScattered clouds.10 mph80%30.33 "HgN/A
1:00 pm21 °FSunny.8 mph80%30.30 "Hg10 mi
12:30 pm21 °FSunny.10 mph80%30.30 "Hg10 mi
12:00 pm21 °FLight snow. Clear.13 mph80%30.30 "HgN/A
11:30 am19 °FLight snow. Partly sunny.8 mph86%30.30 "HgN/A
11:00 am19 °FLight snow. Partly sunny.10 mph93%30.27 "HgN/A
10:30 am19 °FScattered clouds.10 mph86%30.27 "HgN/A
10:00 am19 °FScattered clouds.8 mph79%30.24 "HgN/A
9:30 am19 °FBroken clouds.8 mph79%30.24 "HgN/A
9:00 am19 °FSunny.10 mph79%30.24 "Hg10 mi
8:30 am19 °FSunny.8 mph79%30.21 "Hg10 mi
8:00 am19 °FClear.8 mph79%30.21 "Hg10 mi
7:30 am21 °FClear.10 mph80%30.21 "Hg10 mi
7:00 am21 °FClear.13 mph80%30.21 "Hg10 mi
6:30 am21 °FClear.10 mph80%30.18 "Hg10 mi
6:00 am23 °FClear.10 mph74%30.18 "Hg10 mi
5:30 am23 °FClear.10 mph74%30.18 "Hg10 mi
5:00 am23 °FClear.8 mph74%30.18 "Hg10 mi
4:30 am23 °FClear.10 mph74%30.15 "Hg10 mi
4:00 am23 °FClear.8 mph74%30.15 "Hg10 mi
3:30 am25 °FClear.10 mph69%30.15 "Hg10 mi
3:00 am25 °FClear.10 mph69%30.15 "Hg10 mi
2:30 am25 °FClear.10 mph69%30.15 "Hg10 mi
2:00 am23 °FClear.8 mph74%30.15 "Hg10 mi
Weather by CustomWeather, © 2017

See weather overviewHow to use our weather pages